Location: Anglesey
(53.1800°N, 4.2200°W)
Time: 21:03:21
(UTC+00:00)

N. Korean satellite - Visible Passes

Search period start: 10 December 2018 00:00
Search period end: 20 December 2018 00:00
Orbit: 456 x 511 km, 97.2° (Epoch: 09 December)

Date Brightness Start Highest point End Pass type
(mag) Time Alt. Az. Time Alt. Az. Time Alt. Az.
10 Dec 8.6 06:08:19 10° NNE 06:11:28 30° E 06:14:38 10° SSE visible
10 Dec 7.3 16:50:12 10° SE 16:53:14 29° ENE 16:56:17 10° N visible
10 Dec 8.9 18:23:49 10° SSW 18:26:43 25° W 18:29:38 10° NW visible
11 Dec 9.6 05:44:17 10° NE 05:46:44 17° E 05:49:11 10° SE visible
11 Dec 6.8 07:17:02 10° N 07:20:25 46° WNW 07:23:51 10° SW visible
11 Dec 7.6 17:58:43 10° S 18:02:01 46° W 18:05:22 10° NNW visible
12 Dec 6.5 06:52:21 10° NNE 06:55:54 87° WNW 06:59:29 10° SSW visible
12 Dec 6.4 17:33:59 10° SSE 17:37:25 89° WSW 17:40:53 10° NNW visible
13 Dec 7.5 06:27:50 10° NNE 06:31:18 49° E 06:34:48 10° S visible
13 Dec 6.6 17:09:34 10° SE 17:12:52 47° ENE 17:16:13 10° N visible
13 Dec 9.6 18:44:25 10° SW 18:46:37 16° W 18:48:50 10° NW visible
14 Dec 8.8 06:03:31 10° NE 06:06:38 27° E 06:09:44 10° SSE visible
14 Dec 7.4 07:36:57 10° N 07:40:05 29° WNW 07:43:14 10° SW visible
14 Dec 7.4 16:45:29 10° SE 16:48:25 27° ENE 16:51:22 10° N visible
14 Dec 8.7 18:18:51 10° SSW 18:21:51 28° W 18:24:53 10° NW visible
15 Dec 9.7 05:39:35 10° NE 05:41:52 16° E 05:44:10 10° SE visible
15 Dec 6.7 07:12:08 10° N 07:15:36 52° WNW 07:19:07 10° SSW visible
15 Dec 7.3 17:53:48 10° S 17:57:09 52° W 18:00:33 10° NNW visible
16 Dec 6.6 06:47:29 10° NNE 06:51:03 84° ESE 06:54:41 10° SSW visible
16 Dec 6.3 17:29:07 10° SSE 17:32:32 81° ENE 17:36:02 10° NNW visible
17 Dec 7.8 06:22:58 10° NNE 06:26:26 44° E 06:29:56 10° S visible
17 Dec 6.8 17:04:45 10° SE 17:08:00 42° ENE 17:11:20 10° N visible
17 Dec 9.5 18:39:17 10° SW 18:41:42 18° W 18:44:08 10° NW visible
18 Dec 9.0 05:58:42 10° NE 06:01:44 25° E 06:04:47 10° SSE visible
18 Dec 7.3 07:31:59 10° N 07:35:14 33° WNW 07:38:31 10° SW visible
18 Dec 7.6 16:40:43 10° ESE 16:43:33 24° ENE 16:46:26 10° N visible
18 Dec 8.4 18:13:50 10° SSW 18:16:56 31° W 18:20:04 10° NNW visible
19 Dec 9.8 05:34:50 10° NE 05:36:57 15° E 05:39:04 10° SE visible
19 Dec 6.6 07:07:12 10° N 07:10:44 59° WNW 07:14:20 10° SSW visible
19 Dec 7.1 17:48:51 10° S 17:52:14 59° WSW 17:55:42 10° NNW visible
